Погода в Кривом Бузане

Россия / Астраханская область     46°30′55″N   48°31′54″E
темп.,
°C
ветер,
м/с
пор.,
м/с
влажн.,
%
обл.,
%
осадки,
мм/ч
давл.,
гПа
погр.,
м
17 июня, чт
чт1701:00+26в23445 0.0 100924
04:00+26всв35430 0.0 100966
07:00+29в611390 0.0 1009417
10:00+35вюв892424 0.0 10091119
13:00+38юв77160 0.0 10091476
16:00+38ююв77144 0.0 10091672
19:00+35ююв451919 0.0 1010628
22:00+28ю343582 0.0 101255
18 июня, пт
пт1801:00+28ссз023189 0.0 101226
04:00+27ссв1331100 0.0 101270
07:00+27в7104930 0.0 1014550
10:00+31в6738100 0.0 10141072
13:00+35всв7628100 0.0 10141998
16:00+35всв762394 0.0 10142423
19:00+33всв891960 0.0 10151674
22:00+29всв7132178 0.0 1017567
19 июня, сб
сб1901:00+26всв712235 0.0 1018552
04:00+24всв612285 0.0 1019472
07:00+24всв811315 0.0 1020652
10:00+28всв88245 0.0 10211152
13:00+32всв77190 0.0 10201450
16:00+33всв77160 0.0 10181571
19:00+31всв78170 0.0 10181405
22:00+26всв49200 0.0 1018164
20 июня, вс
вс2001:00+24св410230 0.0 1018178
04:00+23св512294 0.0 1017226
07:00+27вюв814440 0.0 1018701
10:00+32юв912240 0.0 10191383
13:00+34вюв910180 0.0 10191784
16:00+33вюв88170 0.0 10181479
19:00+31вюв79165 0.0 10181107
22:00+25в49230 0.0 1018153
21 июня, пн
пн2101:00+24в49270 0.0 1017130
04:00+23в49290 0.0 1017126
07:00+27в510280 0.0 1018320
10:00+34вюв68150 0.0 10181931
13:00+36вюв77140 0.0 10172362
16:00+35вюв77160 0.0 10162047
19:00+33вюв57200 0.0 1016956
22:00+27вюв33290 0.0 101622